Regional Weather Roundup
Issued by NWS

Home | Current Version | Previous Version | Text Only | Print | Product List | Glossary On
Versions: 1 2 3 4 5 6 7 8 9 10 11 12 13 14 15 16 17 18 19 20 21 22 23 24 25 26 27 28 29 30 31 32 33 34 35 36 37 38 39 40 41 42 43 44 45 46 47 48 49 50
000
ASUS44 KFWD 280615
RWRTX
NORTH TEXAS HOURLY WEATHER ROUNDUP
NATIONAL WEATHER SERVICE FORT WORTH TX
100 AM CDT SAT MAY 28 2016

NOTE: "FAIR" INDICATES FEW OR NO CLOUDS BELOW 12,000 FEET WITH NO
SIGNIFICANT WEATHER AND/OR OBSTRUCTIONS TO VISIBILITY.

TXZ118-119-280700-
DALLAS/FORT WORTH METROPLEX

CITY           SKY/WX    TMP DP  RH WIND       PRES   REMARKS
DFW AIRPORT    CLOUDY    68  64  87 E7        29.81F
6HR MIN TEMP:  66; 6HR MAX TEMP:  79;

DALLAS LOVE    CLOUDY    68  65  90 SE12      29.82F
6HR MIN TEMP:  67; 6HR MAX TEMP:  78;

FTW MEACHAM    MOCLDY    67  64  90 SE12      29.80S
6HR MIN TEMP:  67; 6HR MAX TEMP:  81;

DAL-EXECUTIVE  CLOUDY    66  64  93 SE9       29.82S
6HR MIN TEMP:  65; 6HR MAX TEMP:  75;

FTW-ALLIANCE   CLOUDY    67  64  90 E7        29.82R
6HR MIN TEMP:  64; 6HR MAX TEMP:  74;

FTW-NAS-JRB    MOCLDY    67  64  90 SE12      29.81R
6HR MIN TEMP:  67; 6HR MAX TEMP:  80;

FTW-SPINKS     CLOUDY    66  65  95 SE8       29.83S FOG
6HR MIN TEMP:  64; 6HR MAX TEMP:  78;

ARLINGTON      CLOUDY    70  65  84 SE13      29.81F
6HR MIN TEMP:  67; 6HR MAX TEMP:  81;

GRAND PRAIRIE  CLOUDY    67  67 100 SE7       29.83F
6HR MIN TEMP:  65; 6HR MAX TEMP:  77;

ADDISON        CLOUDY    69  67  96 SE8       29.84F
6HR MIN TEMP:  67; 6HR MAX TEMP:  77;

MESQUITE       CLOUDY    67  66  95 SE7       29.84S
6HR MIN TEMP:  66; 6HR MAX TEMP:  73;

LANCASTER      CLOUDY    67  63  89 SE7       29.84F
6HR MIN TEMP:  65; 6HR MAX TEMP:  73;

$$

TXZ091>094-102>105-117-120-121-131>134-280700-
NORTH CENTRAL TEXAS

CITY           SKY/WX    TMP DP  RH WIND       PRES   REMARKS
SHRMAN/DENISON CLOUDY    64  60  87 SE9       29.83F
6HR MIN TEMP:  62; 6HR MAX TEMP:  73;

GAINESVILLE    MOCLDY    64  63  95 SE14      29.84S
6HR MIN TEMP:  64; 6HR MAX TEMP:  77;

BOWIE          CLEAR     64  62  93 SE7       29.80S
6HR MIN TEMP:  64; 6HR MAX TEMP:  78;

BRIDGEPORT     CLEAR     63  63 100 CALM      29.82R
6HR MIN TEMP:  63; 6HR MAX TEMP:  79;

DECATUR        CLEAR     64  63  97 E8        29.82R
6HR MIN TEMP:  64; 6HR MAX TEMP:  79; 6HR PCP:  0.02;

DENTON         CLOUDY    67  64  90 SE10      29.82R
6HR MIN TEMP:  66; 6HR MAX TEMP:  79; 6HR PCP: TRACE;

MCKINNEY       CLOUDY    67  65  93 SE6       29.83F
6HR MIN TEMP:  66; 6HR MAX TEMP:  74;

GREENVILLE     CLOUDY    68  64  88 SE6       29.85S
ROCKWALL       CLOUDY    67  66  96 S8        29.83S
6HR MIN TEMP:  66; 6HR MAX TEMP:  72;

TERRELL        CLOUDY    68  66  93 SE5       29.84F
6HR MIN TEMP:  68; 6HR MAX TEMP:  70;

WAXAHACHIE     CLOUDY    66  66 100 SE6       29.84F FOG
6HR MIN TEMP:  64; 6HR MAX TEMP:  74;

CLEBURNE       FOG       64  64 100 SE8G15    29.84S VSB 1/4
GRANBURY         N/A     67  64  91 SE8       29.82S
6HR MIN TEMP:  67; 6HR MAX TEMP:  81;

$$

TXZ083>090-098>101-113>116-127>130-139>142-154-155-280700-
WESTERN NORTH TEXAS

CITY           SKY/WX    TMP DP  RH WIND       PRES   REMARKS
WICHITA FALLS  CLEAR     66  63  90 E5        29.78S
6HR MIN TEMP:  66; 6HR MAX TEMP:  83;

WF-KICKAPOO    CLEAR     68  64  88 E5        29.79S
6HR MIN TEMP:  67; 6HR MAX TEMP:  84;

VERNON         PTCLDY    71  64  76 S8        29.78F
6HR MIN TEMP:  71; 6HR MAX TEMP:  91;

ABILENE        CLEAR     67  64  90 S8        29.82S
6HR MIN TEMP:  67; 6HR MAX TEMP:  85;

ABILENE-DYESS  CLEAR     68  62  83 S10       29.80F
6HR MIN TEMP:  68; 6HR MAX TEMP:  87;

BRECKENRIDGE   CLEAR     69  66  91 S8        29.79S
6HR MIN TEMP:  69; 6HR MAX TEMP:  82;

GRAHAM         CLEAR     67  65  94 SE3       29.77S
6HR MIN TEMP:  67; 6HR MAX TEMP:  80;

MINERAL WELLS  CLEAR     64  62  93 SE7       29.78S
6HR MIN TEMP:  64; 6HR MAX TEMP:  78;

STEPHENVILLE   CLEAR     64  62  91 CALM      29.85R
6HR MIN TEMP:  64; 6HR MAX TEMP:  78;

COMANCHE       CLEAR     65  65 100 CALM      29.83R
6HR MIN TEMP:  64; 6HR MAX TEMP:  77; 6HR PCP:  0.12;

BROWNWOOD      CLEAR     64  64 100 CALM      29.83S
COLEMAN        CLEAR     65  64  96 S3        29.84S
6HR MIN TEMP:  65; 6HR MAX TEMP:  81;

$$

TXZ143>147-156>162-174-175-280700-
CENTRAL TEXAS

CITY           SKY/WX    TMP DP  RH WIND       PRES   REMARKS
WACO           CLOUDY    67  65  93 SE7       29.82F
6HR MIN TEMP:  67; 6HR MAX TEMP:  75;

HILLSBORO      FOG       65  65  99 S5        29.83S VSB 3/4
6HR MIN TEMP:  63; 6HR MAX TEMP:  74;

CORSICANA      CLOUDY    68  65  90 SE8       29.85R FOG
6HR MIN TEMP:  68; 6HR MAX TEMP:  70;

MEXIA          CLOUDY    65  65  98 SE3       29.84R FOG
6HR MIN TEMP:  65; 6HR MAX TEMP:  68;

HEARNE         CLOUDY    66  66  99 CALM      29.84S
6HR MIN TEMP:  66; 6HR MAX TEMP:  69;

CAMERON        FOG       66  65  97 SE5       29.84R VSB 3/4
6HR MIN TEMP:  66; 6HR MAX TEMP:  69;

TEMPLE         FOG       66  65  96 SE5       29.83F VSB 1/2
6HR MIN TEMP:  66; 6HR MAX TEMP:  73;

KILLEEN        FOG       63  63 100 S5        29.82S VSB 3/4
6HR MIN TEMP:  61; 6HR MAX TEMP:  74; 6HR PCP: TRACE;

KILLEEN-SKYLRK FOG       65  65 100 SE9       29.83S VSB 1/4
6HR MIN TEMP:  64; 6HR MAX TEMP:  75;

FORT HOOD      FOG       64  64 100 SE6       29.81S VSB 3/8
6HR MIN TEMP:  62; 6HR MAX TEMP:  74; 6HR PCP: TRACE;

GATESVILLE     FOG       64  64 100 CALM      29.85S VSB 1/4
HAMILTON       CLEAR     64  64 100 S8        29.84R
6HR MIN TEMP:  64; 6HR MAX TEMP:  77;

LAMPASAS       CLEAR     62  61  97 CALM      29.83R FOG
6HR MIN TEMP:  62; 6HR MAX TEMP:  76;

$$

TXZ095>097-106>112-122>126-135>138-148>153-164>167-280700-
EAST TEXAS

CITY           SKY/WX    TMP DP  RH WIND       PRES   REMARKS
PARIS          CLOUDY    66  57  72 SE9       29.85F
6HR MIN TEMP:  64; 6HR MAX TEMP:  70;

SULPHUR SPRNGS CLOUDY    69  66  92 SE7       29.87F
6HR MIN TEMP:  67; 6HR MAX TEMP:  69;

MOUNT PLEASANT CLOUDY    67  67  99 E8        29.88F
6HR MIN TEMP:  66; 6HR MAX TEMP:  67;

GILMER         CLOUDY    64  64 100 SE3       29.87F
MINEOLA        CLOUDY    68  64  88 SE5       29.86F
TYLER          CLOUDY    67  63  87 E3        29.85F
6HR MIN TEMP:  66; 6HR MAX TEMP:  69;

LONGVIEW       CLOUDY    66  65  96 E5        29.87F
6HR MIN TEMP:  65; 6HR MAX TEMP:  67;

MARSHALL       CLOUDY    65  63  93 CALM      29.91F
6HR MIN TEMP:  65; 6HR MAX TEMP:  65;

ATHENS         CLOUDY    64  64 100 SE7       29.83F
PALESTINE      CLOUDY    66  65  94 SE5       29.86S
JACKSONVILLE   CLOUDY    64  64  98 SE7       29.87F
HENDERSON      CLOUDY    66  64  93 SE5       29.88S
6HR MIN TEMP:  66; 6HR MAX TEMP:  67;

CENTER         FAIR      67  66  96 S7        29.87F
6HR MIN TEMP:  67; 6HR MAX TEMP:  70; 6HR PCP:  0.02;

NACOGDOCHES    CLOUDY    64  63  94 SE7       29.86R
6HR MIN TEMP:  64; 6HR MAX TEMP:  66;

LUFKIN         CLOUDY    65  64  97 E7        29.86R
6HR MIN TEMP:  65; 6HR MAX TEMP:  67;

$$

SUPPLEMENTAL OBSERVATIONS (CENTRAL)

CITY           SKY/WX    TMP DP  RH WIND       PRES   REMARKS
LAKE TEXOMA      N/A     66  61  82 SE8         N/A
CADDO GRASSLND   N/A     66  61  82 S6          N/A
PAT MAYSE LAKE   N/A     66  64  94 E3          N/A
GREENVILLE       N/A     66  61  82 SE6         N/A
LAKE LIMESTONE   N/A     66  64  94 SE2         N/A
MCGREGOR         N/A     66  64  94 SE5         N/A
TC1F1C2F2C3F3C4F4C5F5C6F6C7F7C8F8C9!


USA.gov is the U.S. government's official web portal to all federal, state and local government web resources and services.